Location: Asheville, NC
(35.6000°N, 82.5500°W)
Time: 09:11:20
(UTC-05:00)

AO-7 - Pass Details

Date: 05 January 2018
Orbit: 1440 x 1458 km, 101.7° (Epoch: 20 January)

Event Time Altitude Azimuth Distance (km) Brightness Sun altitude
Rises 04:18:15 0° 15° (NNE) 4,569 ? -40.3°
Reaches altitude 10° 04:21:02 10° 15° (NNE) 3,587 ? -39.8°
Enters shadow 04:25:49 40° 14° (NNE) 2,041 ? -38.8°
